Location: Betz
(49.1556°N, 2.9558°E)
Time: 07:17:56
(UTC+00:00)

MetOp-B - Pass Details

Date: 18 September 2019
Orbit: 819 x 821 km, 98.7° (Epoch: 22 October)

Event Time Altitude Azimuth Distance (km) Brightness Sun altitude
Exits shadow 20:53:45 61° 221° (SW) 927 4.3 -27.5°
Maximum altitude 20:54:20 66° 257° (WSW) 894 4.3 -27.6°
Drops below altitude 10° 20:59:41 10° 340° (NNW) 2,428 7.3 -28.2°
Sets 21:02:04 0° 344° (NNW) 3,365 8.2 -28.5°
